Location: Berg
(48.5667°N, 13.9833°E)
Time: 23:43:11
(UTC+00:00)

STARLINK-1203 - Pass Details

Date: 09 April 2020
Orbit: 558 x 561 km, 53.0° (Epoch: 03 June)

Event Time Altitude Azimuth Distance (km) Brightness Sun altitude
Rises 19:03:52 0° 294° (WNW) 2,756 9.3 -12.7°
Reaches altitude 10° 19:06:08 10° 296° (WNW) 1,858 7.8 -13.0°
Maximum altitude 19:10:22 79° 24° (NNE) 577 3.7 -13.6°
Enters shadow 19:12:55 23° 109° (ESE) 1,209 4.7 -14.0°
